Location: Concepci�n
(32.5333°N, 117.1167°W)
Time: 12:07:05
(UTC+00:00)

Cosmos 2082 - Pass Details

Date: 08 May 2021
Orbit: 833 x 856 km, 71.0° (Epoch: 15 June)

Event Time Altitude Azimuth Distance (km) Brightness Sun altitude
Rises 12:08:57 0° 333° (NNW) 3,412 6.9 -9.7°
Reaches altitude 10° 12:11:27 10° 328° (NNW) 2,477 6.1 -9.2°
Maximum altitude 12:16:56 50° 254° (WSW) 1,073 3.9 -8.2°
Drops below altitude 10° 12:22:24 10° 180° (S) 2,475 5.9 -7.2°
Sets 12:24:54 0° 175° (S) 3,409 6.6 -6.7°
